Date String (YYYY-MM-DD hh:mm:ss) UTC,Instrument flags,absolute air pressure of the measurement (hPa),sample flow rate (lpm),inlet stack bypass flow (lpm),air temperature of the measurement (°C),ambient temperature measured by the external sensor (°C),aerosol sample conditioner tube jacket temperature (°C),OPC LED temperature (°C),internal box temperature (°C),relative humidity of the measurement (%),span deviation,mass concentration of particles derived from Lorenz-Mie calculation of OPC scattering (μg/m³),mass concentration of particles derived from Lorenz-Mie calculation of OPC scattering (μg/m³),mass concentration of particles derived from Lorenz-Mie calculation of OPC scattering (μg/m³)
DateTimeUTC,F1_M11,P_M11,Q1_M11,Q2_M11,T1_M11,T2_M11,T3_M11,T4_M11,T5_M11,U1_M11,ZSPAN_M11,X0_M11,X2_M11,X1_M11
2023-12-13 02:00:00,SystemResetWarning,0836.1,4.99,000.00,019.7,018.8,000.0,028.0,020.9,21.1,0000.0,0011.87,0008.29,0007.81
2023-12-13 02:01:00,SystemResetWarning,0836.1,5.00,000.00,019.7,018.8,000.0,028.0,020.9,21.1,-000.7,0012.37,0008.33,0007.83
2023-12-13 02:02:00,SystemResetWarning,0836.1,5.00,000.00,019.7,018.8,000.0,028.0,020.9,21.1,-000.3,0012.74,0008.42,0007.88
2023-12-13 02:03:00,SystemResetWarning,0836.1,5.00,000.00,019.7,018.8,000.0,028.0,021.0,21.1,-000.2,0012.91,0008.47,0007.92
2023-12-13 02:04:00,SystemResetWarning,0836.2,5.00,000.00,019.7,018.8,000.0,028.0,021.0,21.2,-000.8,0013.02,0008.55,0007.97
2023-12-13 02:05:00,SystemResetWarning,0836.2,5.00,000.00,019.7,018.8,000.0,028.0,021.0,21.2,-000.6,0013.40,0008.66,0008.05
2023-12-13 02:06:00,SystemResetWarning,0836.2,5.00,000.00,019.7,018.7,000.0,028.0,020.9,21.2,0000.5,0014.02,0008.71,0008.10
2023-12-13 02:07:00,SystemResetWarning,0836.2,5.00,000.00,019.7,018.7,000.0,028.0,020.9,21.2,0001.3,0014.29,0008.82,0008.14
2023-12-13 02:08:00,SystemResetWarning,0836.2,5.00,000.00,019.7,018.7,000.0,028.0,020.9,21.2,0001.6,0014.59,0008.90,0008.15
2023-12-13 02:09:00,SystemResetWarning,0836.2,5.00,000.00,019.7,018.7,000.0,028.0,021.0,21.2,0000.9,0014.40,0008.91,0008.16
2023-12-13 02:10:00,SystemResetWarning,0836.2,5.00,000.00,019.7,018.7,000.0,028.0,020.9,21.1,0001.0,0014.31,0008.96,0008.16
2023-12-13 02:11:00,SystemResetWarning,0836.2,5.00,000.00,019.7,018.7,000.0,028.0,020.9,21.2,-000.1,0014.26,0009.00,0008.16
2023-12-13 02:12:00,SystemResetWarning,0836.2,5.00,000.00,019.7,018.7,000.0,028.0,020.9,21.2,0000.0,0013.83,0009.03,0008.18
2023-12-13 02:13:00,SystemResetWarning,0836.2,5.00,000.00,019.7,018.7,000.0,028.0,020.9,21.2,0000.0,0013.53,0009.03,0008.16
2023-12-13 02:14:00,SystemResetWarning,0836.2,5.00,000.00,019.7,018.7,000.0,028.0,020.9,21.2,-000.0,0013.46,0009.02,0008.16
2023-12-13 02:15:00,SystemResetWarning,0836.2,5.01,000.00,019.7,018.7,000.0,027.9,020.9,21.2,0000.0,0013.51,0009.02,0008.16
2023-12-13 02:16:00,SystemResetWarning,0836.2,5.01,000.00,019.7,018.7,000.0,027.9,020.9,21.2,0000.7,0013.45,0009.03,0008.16
2023-12-13 02:17:00,SystemResetWarning,0836.2,5.00,000.00,019.7,018.7,000.0,027.9,020.9,21.2,0000.5,0013.30,0009.12,0008.18
2023-12-13 02:18:00,SystemResetWarning,0836.2,5.00,000.00,019.7,018.7,000.0,027.9,020.9,21.2,0000.1,0013.74,0009.14,0008.18
2023-12-13 02:19:00,SystemResetWarning,0836.3,5.00,000.00,019.7,018.7,000.0,027.9,020.9,21.3,-000.1,0013.52,0009.10,0008.20
2023-12-13 02:20:00,SystemResetWarning,0836.3,5.00,000.00,019.7,018.7,000.0,027.9,020.9,21.3,0000.3,0013.92,0009.14,0008.23
2023-12-13 02:21:00,SystemResetWarning,0836.4,4.98,000.00,019.7,018.7,000.0,027.9,020.9,21.3,0000.4,0014.06,0009.12,0008.24
2023-12-13 02:22:00,SystemResetWarning,0836.4,4.99,000.00,019.7,018.7,000.0,027.9,020.9,21.3,0001.2,0013.99,0009.06,0008.24
2023-12-13 02:23:00,SystemResetWarning,0836.4,5.00,000.00,019.7,018.7,000.0,027.9,020.9,21.3,0001.2,0014.06,0009.07,0008.25
2023-12-13 02:24:00,SystemResetWarning,0836.4,5.00,000.00,019.7,018.7,000.0,027.9,020.9,21.3,0001.7,0013.99,0009.06,0008.26
2023-12-13 02:25:00,SystemResetWarning,0836.4,5.01,000.00,019.7,018.7,000.0,027.9,020.9,21.3,0001.6,0013.83,0009.06,0008.26
2023-12-13 02:26:00,SystemResetWarning,0836.4,5.01,000.00,019.7,018.7,000.0,027.9,020.9,21.3,0000.4,0014.21,0009.08,0008.28
2023-12-13 02:27:00,SystemResetWarning,0836.4,5.00,000.00,019.7,018.7,000.0,027.9,020.9,21.3,0000.0,0014.45,0009.03,0008.27
2023-12-13 02:28:00,SystemResetWarning,0836.4,5.00,000.00,019.6,018.7,000.0,027.9,020.9,21.3,0000.0,0014.25,0008.96,0008.26
2023-12-13 02:29:00,SystemResetWarning,0836.4,5.00,000.00,019.6,018.7,000.0,027.9,020.9,21.3,0000.0,0013.89,0008.95,0008.25
2023-12-13 02:30:00,SystemResetWarning,0836.4,5.00,000.00,019.6,018.7,000.0,027.9,020.9,21.3,0000.0,0013.87,0008.95,0008.24
2023-12-13 02:31:00,SystemResetWarning,0836.4,5.00,000.00,019.6,018.7,000.0,027.9,020.9,21.3,0000.5,0013.51,0008.94,0008.21
2023-12-13 02:32:00,SystemResetWarning,0836.4,4.99,000.00,019.6,018.6,000.0,027.9,020.9,21.3,0001.2,0013.32,0008.93,0008.20
2023-12-13 02:33:00,SystemResetWarning,0836.4,5.00,000.00,019.6,018.6,000.0,027.9,020.9,21.3,0000.9,0013.51,0008.93,0008.18
2023-12-13 02:34:00,SystemResetWarning,0836.4,5.00,000.00,019.6,018.6,000.0,027.9,020.9,21.3,0000.4,0013.48,0008.88,0008.15
2023-12-13 02:35:00,SystemResetWarning,0836.4,5.01,000.00,019.6,018.6,000.0,027.9,020.9,21.3,0000.0,0014.25,0008.84,0008.12
2023-12-13 02:36:00,SystemResetWarning,0836.4,5.01,000.00,019.6,018.6,000.0,027.9,020.9,21.3,-000.6,0014.19,0008.80,0008.09
2023-12-13 02:37:00,SystemResetWarning,0836.4,5.01,000.00,019.6,018.6,000.0,027.9,020.8,21.3,-000.9,0013.75,0008.78,0008.04
2023-12-13 02:38:00,SystemResetWarning,0836.4,5.00,000.00,019.6,018.6,000.0,027.9,020.8,21.3,-000.3,0013.40,0008.74,0007.99
2023-12-13 02:39:00,SystemResetWarning,0836.4,4.99,000.00,019.6,018.6,000.0,027.9,020.8,21.3,0000.1,0013.15,0008.71,0007.95
2023-12-13 02:40:00,SystemResetWarning,0836.4,5.00,000.00,019.6,018.6,000.0,027.9,020.8,21.3,0000.3,0013.82,0008.68,0007.92
2023-12-13 02:41:00,SystemResetWarning,0836.4,5.00,000.00,019.6,018.6,000.0,027.9,020.8,21.3,0000.2,0013.94,0008.65,0007.88
2023-12-13 02:42:00,SystemResetWarning,0836.4,4.99,000.00,019.6,018.6,000.0,027.9,020.8,21.3,0000.6,0014.42,0008.58,0007.82
2023-12-13 02:43:00,SystemResetWarning,0836.4,5.00,000.00,019.6,018.6,000.0,027.9,020.8,21.3,0001.3,0015.27,0008.54,0007.77
2023-12-13 02:44:00,SystemResetWarning,0836.4,5.00,000.00,019.6,018.6,000.0,027.9,020.8,21.3,0001.3,0015.61,0008.50,0007.73
2023-12-13 02:45:00,SystemResetWarning,0836.5,5.00,000.00,019.6,018.6,000.0,027.9,020.8,21.3,0001.5,0016.15,0008.47,0007.69
2023-12-13 02:46:00,SystemResetWarning,0836.5,5.00,000.00,019.6,018.6,000.0,027.9,020.8,21.3,0001.8,0015.62,0008.45,0007.64
2023-12-13 02:47:00,SystemResetWarning,0836.5,5.00,000.00,019.6,018.6,000.0,027.9,020.8,21.3,0001.9,0015.53,0008.38,0007.58
2023-12-13 02:48:00,SystemResetWarning,0836.5,5.00,000.00,019.6,018.6,000.0,027.9,020.8,21.3,0002.0,0015.54,0008.30,0007.52
2023-12-13 02:49:00,SystemResetWarning,0836.4,5.00,000.00,019.6,018.6,000.0,027.9,020.8,21.3,0001.5,0015.50,0008.24,0007.45
2023-12-13 02:50:00,SystemResetWarning,0836.4,5.00,000.00,019.6,018.6,000.0,027.9,020.8,21.3,0001.6,0015.56,0008.18,0007.40
2023-12-13 02:51:00,SystemResetWarning,0836.4,4.99,000.00,019.6,018.6,000.0,027.9,020.8,21.3,0001.3,0014.78,0008.12,0007.35
2023-12-13 02:52:00,SystemResetWarning,0836.4,4.99,000.00,019.6,018.6,000.0,027.9,020.8,21.3,0000.1,0014.70,0008.10,0007.32
2023-12-13 02:53:00,SystemResetWarning,0836.4,5.00,000.00,019.6,018.6,000.0,027.9,020.8,21.3,0000.0,0014.00,0008.07,0007.30
2023-12-13 02:54:00,SystemResetWarning,0836.4,5.00,000.00,019.6,018.6,000.0,027.9,020.8,21.3,0000.5,0013.62,0008.08,0007.28
2023-12-13 02:55:00,SystemResetWarning,0836.4,5.00,000.00,019.6,018.6,000.0,027.9,020.8,21.3,0000.6,0013.51,0008.09,0007.28
2023-12-13 02:56:00,SystemResetWarning,0836.4,5.00,000.00,019.6,018.6,000.0,027.8,020.8,21.3,0000.5,0012.77,0008.10,0007.29
2023-12-13 02:57:00,SystemResetWarning,0836.4,5.01,000.00,019.6,018.6,000.0,027.8,020.8,21.3,0000.4,0012.49,0008.07,0007.30
2023-12-13 02:58:00,SystemResetWarning,0836.4,5.01,000.00,019.6,018.6,000.0,027.8,020.8,21.3,0000.6,0012.57,0008.08,0007.30
2023-12-13 02:59:00,SystemResetWarning,0836.5,4.99,000.00,019.6,018.6,000.0,027.8,020.8,21.3,0000.7,0012.67,0008.09,0007.31
